PBO Station Position Time Series. Reference Frame : NAM14
Format Version,1.1.0
4-character ID,P207
Station name,GoatMtnMNFCN2008
Begin Date, 2008-06-13
End Date, 2019-10-07
Release Date, 2019-10-08
Reference position, 39.2600449256 North Latitude, -122.7185687074 East Longitude, 1826.59511 meters elevation,
Date, North (mm), East (mm), Vertical (mm), North Std. Deviation (mm), East Std. Deviation (mm),              Vertical Std. Deviation (mm), Quality,
2008-06-13,0.00, 0.00, 0.00, 2.05, 1.56, 7.30, repro,
2008-06-14,0.42, -0.07, 3.10, 2.10, 1.60, 7.42, repro,
2008-06-15,0.90, -0.06, 3.33, 2.10, 1.59, 7.38, repro,
2008-06-16,1.69, -0.89, 5.55, 2.04, 1.55, 7.28, repro,
2008-06-17,0.30, -0.17, 1.18, 2.04, 1.55, 7.26, repro,
2008-06-18,0.06, 0.64, 1.05, 2.09, 1.60, 7.51, repro,
2008-06-19,0.09, -0.05, 1.77, 2.14, 1.68, 7.84, repro,
2008-06-20,0.23, -0.29, 0.87, 2.04, 1.55, 7.23, repro,
2008-06-21,3.08, 2.16, -7.52, 2.05, 1.55, 7.29, repro,
2008-06-22,0.55, -0.64, 2.64, 2.05, 1.55, 7.25, repro,
2008-06-23,0.08, -0.19, 3.81, 2.07, 1.58, 7.39, repro,
2008-06-24,-0.11, -0.66, 1.90, 2.09, 1.62, 7.50, repro,
2008-06-25,-0.88, -1.41, 9.49, 2.04, 1.55, 7.28, repro,
2008-06-26,0.38, -1.00, 11.31, 2.09, 1.67, 7.58, repro,
2008-06-27,-1.85, -1.25, 3.85, 2.05, 1.54, 7.24, repro,
2008-06-28,-1.11, -0.45, 2.08, 2.08, 1.60, 7.39, repro,
2008-06-29,0.40, -0.23, 2.30, 2.09, 1.62, 7.48, repro,
2008-06-30,-1.79, -1.34, 2.80, 2.07, 1.59, 7.52, repro,
2008-07-01,-0.64, -0.94, 2.17, 2.04, 1.55, 7.27, repro,
2008-07-02,-0.51, -1.38, 6.69, 2.04, 1.55, 7.23, repro,
2008-07-03,1.98, -1.42, -3.90, 2.04, 1.55, 7.22, repro,
2008-07-04,-0.55, -1.17, 2.10, 2.04, 1.55, 7.24, repro,
2008-07-05,-0.07, -0.72, 11.29, 2.04, 1.56, 7.30, repro,
2008-07-06,-0.71, -0.17, 12.70, 2.06, 1.56, 7.34, repro,
2008-07-07,-0.85, -0.91, 9.92, 2.08, 1.61, 7.43, repro,
2008-07-08,1.69, 0.79, 5.14, 2.05, 1.55, 7.25, repro,
2008-07-09,-0.45, -0.12, 13.72, 2.07, 1.58, 7.33, repro,
2008-07-10,0.52, -0.36, 8.03, 2.11, 1.59, 7.40, repro,
2008-07-11,-0.16, -0.46, 12.17, 2.15, 1.66, 7.62, repro,
2008-07-12,-0.06, -0.43, 7.72, 2.06, 1.55, 7.28, repro,
2008-07-13,-1.72, -0.26, 3.36, 2.09, 1.62, 7.44, repro,
2008-07-14,-0.52, -0.17, 9.10, 2.09, 1.61, 7.47, repro,
2008-07-15,-0.38, -1.44, 11.10, 2.12, 1.64, 7.60, repro,
2008-07-16,-0.56, -0.02, 7.55, 2.09, 1.60, 7.47, repro,
2008-07-17,-1.08, -1.12, 9.91, 2.05, 1.55, 7.27, repro,
2008-07-18,-0.58, -2.15, 13.24, 2.18, 1.59, 7.58, repro,
2008-07-19,-1.89, -1.87, 6.29, 2.11, 1.57, 7.48, repro,
2008-07-20,-0.83, -0.62, 11.80, 2.04, 1.55, 7.23, repro,
2008-07-21,-0.58, 0.56, 13.72, 2.06, 1.57, 7.31, repro,
2008-07-22,-0.83, -0.69, 11.41, 2.05, 1.55, 7.25, repro,
2008-07-23,-0.51, -0.32, 13.85, 2.10, 1.55, 7.34, repro,
2008-07-24,-0.91, -2.90, 13.57, 2.04, 1.55, 7.21, repro,
2008-07-25,-0.82, -1.23, 11.31, 2.04, 1.55, 7.24, repro,
2008-07-26,-0.91, -0.11, 9.63, 2.04, 1.54, 7.22, repro,
2008-07-27,-0.87, -1.02, 15.20, 2.04, 1.56, 7.29, repro,
2008-07-28,0.64, 1.02, 14.34, 2.12, 1.58, 7.38, repro,
2008-07-29,-0.27, 0.77, 13.72, 2.12, 1.56, 7.50, repro,
2008-07-30,-0.01, 0.00, 13.22, 2.12, 1.57, 7.50, repro,
2008-07-31,-1.31, -0.42, 16.02, 2.03, 1.54, 7.18, repro,
2008-08-01,-1.10, 0.69, 14.85, 2.04, 1.55, 7.26, repro,
2008-08-02,0.01, 0.48, 14.11, 2.06, 1.56, 7.31, repro,
2008-08-03,-0.80, -1.92, 11.87, 2.08, 1.59, 7.38, repro,
2008-08-04,-0.03, -1.15, 9.31, 2.04, 1.54, 7.17, repro,
2008-08-05,-0.21, 0.05, 8.47, 2.03, 1.54, 7.16, repro,
2008-08-06,0.70, 1.47, 8.09, 2.08, 1.55, 7.33, repro,
2008-08-07,-0.25, 0.77, 13.49, 2.16, 1.62, 7.60, repro,
2008-08-08,0.80, -0.07, 12.76, 2.16, 1.62, 7.58, repro,
2008-08-09,0.07, -0.61, 10.53, 2.09, 1.56, 7.34, repro,
2008-08-10,-1.12, -1.45, 8.28, 2.10, 1.56, 7.37, repro,
2008-08-11,-1.44, -0.99, 8.29, 2.08, 1.54, 7.29, repro,
2008-08-12,-1.50, -1.65, 11.65, 2.10, 1.57, 7.46, repro,
2008-08-13,-3.08, -2.70, 18.36, 2.11, 1.57, 7.44, repro,
2008-08-14,-0.98, -0.56, 9.12, 2.09, 1.56, 7.38, repro,
2008-08-15,0.26, 0.09, 9.31, 2.10, 1.57, 7.42, repro,
2008-08-16,-0.77, -0.43, 8.71, 2.09, 1.55, 7.34, repro,
2008-08-17,-1.31, 0.72, 10.27, 2.10, 1.56, 7.37, repro,
2008-08-18,-0.15, -0.84, 10.43, 2.10, 1.57, 7.41, repro,
2008-08-19,0.83, -0.31, 12.46, 2.09, 1.56, 7.36, repro,
2008-08-20,-0.77, 0.31, 10.35, 2.09, 1.57, 7.37, repro,
2008-08-21,-0.60, -1.63, 12.03, 2.10, 1.57, 7.43, repro,
2008-08-22,-0.94, -0.55, 14.56, 2.09, 1.55, 7.33, repro,
2008-08-23,-1.97, -1.37, 5.94, 2.10, 1.56, 7.36, repro,
2008-08-24,-0.73, -1.08, 11.77, 2.12, 1.58, 7.46, repro,
2008-08-25,0.94, 0.94, 12.51, 2.09, 1.56, 7.38, repro,
2008-08-26,-1.20, -0.60, 14.49, 2.10, 1.58, 7.43, repro,
2008-08-27,-1.28, -0.73, 16.35, 2.13, 1.59, 7.58, repro,
2008-08-28,-1.84, -1.51, 11.14, 2.24, 1.66, 7.82, repro,
2008-08-29,-0.60, -0.79, 11.65, 2.15, 1.62, 7.71, repro,
2008-08-30,-1.47, -0.01, 15.44, 2.12, 1.58, 7.46, repro,
2008-08-31,0.10, -1.53, 9.12, 2.12, 1.59, 7.47, repro,
2008-09-01,-1.04, -1.88, 3.89, 2.13, 1.59, 7.49, repro,
2008-09-02,-0.68, 0.12, 4.21, 2.15, 1.62, 7.59, repro,
2008-09-03,-0.50, -0.59, 10.51, 2.14, 1.60, 7.54, repro,
2008-09-04,-1.60, -0.96, 9.02, 2.23, 1.70, 7.97, repro,
2008-09-05,-2.25, -0.98, 6.20, 2.18, 1.63, 7.62, repro,
2008-09-06,-1.29, -0.89, 8.04, 2.12, 1.59, 7.50, repro,
2008-09-07,-2.13, -0.92, 10.54, 2.11, 1.59, 7.47, repro,
2008-09-08,-3.62, -2.14, 8.69, 2.12, 1.58, 7.47, repro,
2008-09-09,-2.26, -1.39, 12.36, 2.17, 1.59, 7.63, repro,
2008-09-10,-1.64, -2.39, 5.42, 2.20, 1.69, 7.91, repro,
2008-09-11,-0.33, -1.23, 12.55, 2.16, 1.62, 7.60, repro,
2008-09-12,-0.59, -0.15, 10.88, 2.18, 1.67, 7.77, repro,
2008-09-13,-1.56, -0.67, 9.30, 2.18, 1.65, 7.75, repro,
2008-09-14,-2.04, -0.85, 11.28, 2.20, 1.65, 7.81, repro,
2008-09-15,-2.47, -0.72, 11.76, 2.11, 1.59, 7.50, repro,
2008-09-16,-0.40, -0.55, 6.72, 2.12, 1.61, 7.55, repro,
2008-09-17,-0.51, -0.18, 1.58, 2.19, 1.63, 7.66, repro,
2008-09-18,-0.05, -0.28, 5.17, 2.08, 1.55, 7.26, repro,
2008-09-19,-1.66, -0.45, 13.35, 2.09, 1.56, 7.36, repro,
2008-09-20,-0.37, -1.11, 11.64, 2.10, 1.55, 7.35, repro,
2008-09-21,-0.79, -0.58, 6.62, 2.10, 1.56, 7.40, repro,
2008-09-22,-1.41, -1.62, 10.61, 2.12, 1.59, 7.61, repro,
2008-09-23,-0.62, -0.20, 12.74, 2.08, 1.55, 7.32, repro,
2008-09-24,-3.16, -1.43, 16.86, 2.17, 1.65, 7.70, repro,
2008-09-25,-3.46, -2.66, 17.49, 2.12, 1.59, 7.52, repro,
2008-09-26,-1.54, -0.70, 13.75, 2.10, 1.56, 7.35, repro,
2008-09-27,-2.08, -0.20, 11.71, 2.20, 1.66, 7.79, repro,
2008-09-28,-1.75, 0.46, 7.01, 2.09, 1.55, 7.31, repro,
2008-09-29,-0.95, 0.10, 8.96, 2.14, 1.60, 7.52, repro,
2008-09-30,-0.81, -0.96, 8.57, 2.08, 1.55, 7.31, repro,
2008-10-01,0.43, 0.77, 2.00, 2.10, 1.55, 7.33, repro,
2008-10-02,0.68, 3.28, 9.87, 2.17, 1.61, 7.67, repro,
2008-10-03,-1.72, 0.09, 15.71, 2.18, 1.65, 7.73, repro,
2008-10-04,-0.59, 0.28, 9.74, 2.11, 1.57, 7.41, repro,
2008-10-05,-1.79, -0.70, 10.10, 2.10, 1.56, 7.37, repro,
2008-10-06,-1.28, -0.25, 10.49, 2.10, 1.55, 7.34, repro,
2008-10-07,-1.23, 0.61, 10.59, 2.12, 1.55, 7.40, repro,
2008-10-08,-0.20, 0.39, 4.76, 2.10, 1.57, 7.36, repro,
2008-10-09,-1.00, -0.23, 3.15, 2.04, 1.53, 7.15, repro,
2008-10-10,-3.46, -0.16, 4.62, 2.04, 1.55, 7.26, repro,
2008-10-11,-3.60, -0.59, -0.03, 2.05, 1.54, 7.25, repro,
2008-10-12,-2.29, -1.20, 5.12, 2.05, 1.54, 7.25, repro,
2008-10-13,-0.90, -0.85, 2.73, 2.04, 1.54, 7.20, repro,
2008-10-14,-0.99, 0.99, 4.34, 2.03, 1.52, 7.15, repro,
2008-10-15,-1.88, 0.00, 6.19, 2.10, 1.56, 7.34, repro,
2008-10-16,-0.95, 0.11, 4.95, 2.12, 1.58, 7.47, repro,
2008-10-17,-1.57, -0.15, 0.43, 2.05, 1.54, 7.23, repro,
2008-10-18,-0.78, 0.26, 2.39, 2.06, 1.55, 7.30, repro,
2008-10-19,-2.24, -0.68, 7.17, 2.02, 1.52, 7.09, repro,
2008-10-20,-2.67, -0.32, 8.57, 2.02, 1.52, 7.08, repro,
2008-10-21,-1.16, 0.26, 4.96, 2.10, 1.58, 7.36, repro,
2008-10-22,-2.10, 0.13, 3.79, 2.03, 1.53, 7.13, repro,
2008-10-23,-1.05, 0.30, 5.71, 2.06, 1.55, 7.32, repro,
2008-10-24,-0.13, -0.29, 6.64, 2.03, 1.54, 7.15, repro,
2008-10-25,-1.22, -0.02, 12.34, 2.02, 1.52, 7.12, repro,
2008-10-26,-1.76, 0.02, 4.25, 2.03, 1.52, 7.12, repro,
2008-10-27,-1.40, 0.68, 0.12, 2.04, 1.53, 7.16, repro,
2008-10-28,-1.83, 0.12, -4.11, 2.13, 1.56, 7.37, repro,
2008-10-29,-0.51, 0.57, 2.63, 2.21, 1.61, 7.52, repro,
2008-10-30,0.27, 1.63, 5.59, 2.02, 1.52, 7.09, repro,
2008-10-31,-2.15, -1.63, 3.52, 2.14, 1.60, 7.52, repro,
2008-11-01,-1.79, -1.33, 6.96, 2.05, 1.54, 7.21, repro,
2008-11-02,-0.01, 3.60, 5.99, 2.10, 1.61, 7.49, repro,
2008-11-03,-0.88, -0.74, 4.27, 2.10, 1.58, 7.38, repro,
2008-11-04,-0.86, 0.65, -1.59, 2.04, 1.57, 7.24, repro,
2008-11-05,-1.69, -1.45, -0.08, 2.04, 1.56, 7.20, repro,
2008-11-06,-1.19, 0.53, -1.82, 2.05, 1.57, 7.27, repro,
2008-11-07,-0.67, 0.58, -0.14, 2.07, 1.61, 7.39, repro,
2008-11-08,-1.02, -0.18, 4.17, 2.12, 1.67, 7.63, repro,
2008-11-09,-2.12, -3.24, 8.16, 2.09, 1.58, 7.37, repro,
2008-11-10,-0.19, -0.92, 10.65, 2.06, 1.59, 7.32, repro,
2008-11-11,-1.40, -0.36, 3.82, 2.14, 1.70, 7.80, repro,
2008-11-12,-0.47, 1.40, -0.15, 2.05, 1.56, 7.31, repro,
2008-11-13,-2.05, -0.15, 4.47, 2.15, 1.65, 7.61, repro,
2008-11-14,-1.87, -2.54, 6.14, 2.16, 1.66, 7.63, repro,
2008-11-15,-1.25, 0.39, 5.73, 2.14, 1.65, 7.53, repro,
2008-11-16,-0.71, -0.60, 1.09, 2.10, 1.66, 7.59, repro,
2008-11-17,-1.40, 0.52, -0.89, 2.12, 1.65, 7.53, repro,
2008-11-18,-1.54, 0.46, 1.62, 2.24, 1.84, 8.35, repro,
2008-11-19,-0.94, 0.48, -1.52, 2.13, 1.66, 7.64, repro,
2008-11-20,-0.17, 0.59, -1.56, 2.13, 1.65, 7.54, repro,
2008-11-21,-1.51, 0.81, 1.03, 2.26, 1.84, 8.32, repro,
2008-11-22,-0.68, -0.95, 6.99, 2.17, 1.80, 8.04, repro,
2008-11-23,-0.97, 0.30, -2.07, 2.18, 1.68, 7.70, repro,
2008-11-24,-0.36, 0.19, 2.08, 2.22, 1.74, 7.86, repro,
2008-11-25,-0.32, -0.57, 2.39, 2.14, 1.70, 7.69, repro,
2008-11-26,-0.80, -1.05, 3.59, 2.04, 1.55, 7.23, repro,
2008-11-27,-1.21, -0.61, 0.95, 2.08, 1.64, 7.55, repro,
2008-11-28,-0.46, -0.80, 2.51, 2.13, 1.69, 7.64, repro,
2008-11-29,-1.59, -0.97, 3.84, 2.15, 1.72, 7.91, repro,
2008-11-30,-1.42, -0.55, 7.42, 2.07, 1.58, 7.39, repro,
2008-12-01,0.46, 0.44, 6.41, 2.04, 1.55, 7.24, repro,
2008-12-02,-0.70, 0.03, 4.14, 2.12, 1.66, 7.56, repro,
2008-12-03,-1.62, 0.41, 5.08, 2.12, 1.66, 7.56, repro,
2008-12-04,-1.83, 0.92, 1.74, 2.11, 1.75, 7.81, repro,
2008-12-05,-0.52, -0.03, 5.02, 2.06, 1.59, 7.38, repro,
2008-12-06,-0.01, 0.79, -2.17, 2.13, 1.73, 7.78, repro,
2008-12-07,0.02, 0.20, 1.28, 2.14, 1.73, 7.79, repro,
2008-12-08,-0.41, -0.28, 6.54, 2.10, 1.70, 7.70, repro,
2008-12-09,0.36, 0.08, 1.29, 2.10, 1.61, 7.39, repro,
2008-12-10,0.62, 0.69, -2.43, 2.06, 1.58, 7.37, repro,
2008-12-11,-0.63, 0.24, 0.90, 2.19, 1.70, 7.76, repro,
2008-12-12,-1.22, -1.04, 8.40, 2.17, 1.70, 7.77, repro,
2008-12-13,-1.54, -1.06, 9.51, 2.12, 1.67, 7.63, repro,
2008-12-14,-0.51, -0.07, 7.24, 2.05, 1.55, 7.24, repro,
2008-12-15,-1.65, 1.75, 12.92, 2.05, 1.54, 7.22, repro,
2008-12-16,-3.84, 1.68, 13.04, 2.04, 1.53, 7.12, repro,
2008-12-17,-4.25, 1.19, 1.85, 2.08, 1.53, 7.20, repro,
2008-12-18,0.55, 0.87, 3.39, 2.03, 1.53, 7.13, repro,
2008-12-19,-2.78, 3.85, 11.26, 2.16, 1.61, 7.73, repro,
2008-12-20,-3.63, 2.42, 8.67, 2.09, 1.59, 7.44, repro,
2008-12-21,0.43, 2.78, -0.98, 2.09, 1.59, 7.41, repro,
2008-12-22,-1.91, 1.17, 6.89, 2.05, 1.53, 7.18, repro,
2008-12-23,-5.66, 1.64, 10.90, 2.03, 1.52, 7.12, repro,
2008-12-24,-4.23, 2.03, 12.20, 2.05, 1.54, 7.27, repro,
2008-12-25,5.86, 24.56, 25.11, 2.07, 1.55, 7.32, repro,
2008-12-26,2.83, 22.52, 30.51, 2.05, 1.54, 7.25, repro,
2008-12-27,-1.82, 0.99, -5.43, 2.04, 1.54, 7.21, repro,
2008-12-28,-1.91, 7.02, -7.29, 2.03, 1.53, 7.15, repro,
2008-12-29,-1.01, 2.78, -7.51, 2.02, 1.53, 7.13, repro,
2008-12-30,-0.98, 0.78, -1.27, 2.04, 1.54, 7.20, repro,
2008-12-31,-1.19, -0.07, 1.85, 2.04, 1.53, 7.17, repro,
2009-01-01,-0.62, 0.14, 1.48, 2.04, 1.54, 7.20, repro,
2009-01-02,-1.35, -0.09, 4.93, 2.03, 1.53, 7.10, repro,
2009-01-03,-2.31, 0.01, 2.76, 2.03, 1.53, 7.15, repro,
2009-01-04,-2.15, 0.13, 1.10, 2.05, 1.54, 7.21, repro,
2009-01-05,-1.65, -0.04, -0.31, 2.04, 1.53, 7.19, repro,
2009-01-06,-3.34, -1.13, 10.22, 2.04, 1.53, 7.14, repro,
2009-01-07,-0.80, 0.85, 0.72, 2.03, 1.54, 7.18, repro,
2009-01-08,-0.81, 0.25, 2.87, 2.08, 1.58, 7.37, repro,
2009-01-09,-1.68, 0.70, 1.61, 2.07, 1.57, 7.34, repro,
2009-01-10,-1.02, 0.43, -4.59, 2.04, 1.53, 7.23, repro,
2009-01-11,-1.80, 0.14, -2.32, 2.03, 1.53, 7.15, repro,
2009-01-12,-0.75, -0.09, -2.13, 2.03, 1.54, 7.19, repro,
2009-01-13,-1.39, -0.04, -2.88, 2.04, 1.54, 7.20, repro,
2009-01-14,-1.98, 0.81, -4.95, 2.02, 1.53, 7.14, repro,
2009-01-15,-1.99, 0.52, -3.99, 2.04, 1.54, 7.22, repro,
2009-01-16,-1.60, -0.55, -2.14, 2.03, 1.53, 7.16, repro,
2009-01-17,-1.24, 0.12, -2.76, 2.01, 1.53, 7.11, repro,
2009-01-18,-0.91, 0.36, -0.97, 2.04, 1.56, 7.28, repro,
2009-01-19,-1.02, 0.89, -3.34, 2.04, 1.55, 7.24, repro,
2009-01-20,-1.60, 1.28, -3.37, 2.03, 1.54, 7.19, repro,
2009-01-21,-0.97, 0.95, 2.69, 2.02, 1.53, 7.15, repro,
2009-01-22,-1.07, 0.15, 4.06, 2.02, 1.54, 7.18, repro,
2009-01-23,-2.08, 0.58, 0.37, 2.02, 1.55, 7.22, repro,
2009-01-24,-1.66, 0.69, -3.39, 2.02, 1.55, 7.22, repro,
2009-01-25,-2.01, 0.03, 1.32, 2.02, 1.54, 7.19, repro,
2009-01-26,-1.78, -0.35, -1.00, 2.02, 1.53, 7.14, repro,
2009-01-27,-1.23, 1.37, 0.57, 2.02, 1.54, 7.15, repro,
2009-01-28,-2.50, 0.99, -2.82, 2.02, 1.54, 7.20, repro,
2009-01-29,-1.10, 0.17, -0.53, 2.02, 1.55, 7.20, repro,
2009-01-30,-1.04, 0.17, -3.06, 2.03, 1.55, 7.20, repro,
2009-01-31,-0.61, 0.71, 0.86, 2.02, 1.53, 7.12, repro,
2009-02-01,-1.87, 0.53, 0.23, 2.01, 1.53, 7.11, repro,
2009-02-02,-1.34, 1.10, -2.14, 2.02, 1.55, 7.18, repro,
2009-02-03,-1.03, 0.41, -2.58, 2.04, 1.59, 7.34, repro,
2009-02-04,-2.00, 0.48, 1.79, 2.00, 1.55, 7.13, repro,
2009-02-05,0.35, 1.19, 0.58, 2.08, 1.64, 7.54, repro,
2009-02-06,1.63, 3.10, 9.89, 2.15, 1.67, 7.71, repro,
2009-02-07,-4.07, -2.31, 3.13, 2.05, 1.58, 7.30, repro,
2009-02-08,-1.70, -0.17, 5.35, 2.03, 1.57, 7.26, repro,
2009-02-09,-2.04, 0.75, 9.61, 2.05, 1.59, 7.33, repro,
2009-02-10,-2.11, 0.17, 4.91, 2.03, 1.56, 7.21, repro,
2009-02-11,-0.34, 0.30, 0.09, 2.09, 1.63, 7.46, repro,
2009-02-12,-2.13, 1.39, 1.33, 2.09, 1.62, 7.44, repro,
2009-02-13,-0.25, 1.52, 4.85, 2.16, 1.68, 7.63, repro,
2009-02-14,-0.86, 3.63, 5.94, 2.10, 1.64, 7.47, repro,
2009-02-15,-0.38, 3.25, 8.91, 2.09, 1.63, 7.48, repro,
2009-02-16,0.32, 2.60, 19.58, 2.10, 1.63, 7.46, repro,
2009-02-17,-0.20, 3.65, 16.55, 2.12, 1.62, 7.50, repro,
2009-02-18,-1.30, 1.99, 2.31, 2.20, 1.72, 7.92, repro,
2009-02-19,-3.20, 0.49, 5.17, 2.04, 1.59, 7.38, repro,
2009-02-20,-1.91, -0.31, -1.23, 2.15, 1.69, 7.80, repro,
2009-02-21,-0.84, -0.11, -3.55, 2.18, 1.73, 8.00, repro,
2009-02-22,-0.70, -0.85, 3.37, 2.28, 1.72, 7.98, repro,
2009-02-23,-1.52, -0.12, -6.23, 2.08, 1.63, 7.52, repro,
2009-02-24,-1.06, 0.31, -2.22, 2.15, 1.71, 7.72, repro,
2009-02-25,-1.61, 1.26, -5.73, 205.79, 116.96, 243.40, repro,
2009-02-26,-1.98, 3.55, 6.55, 2.10, 1.65, 7.52, repro,
2009-02-27,-0.24, 0.16, -3.33, 2.22, 1.73, 8.25, repro,
2009-02-28,-1.08, 0.49, -5.09, 2.09, 1.64, 7.57, repro,
2009-03-01,-0.98, -0.51, -5.22, 2.07, 1.63, 7.47, repro,
2009-03-02,-2.50, -2.45, 3.89, 2.08, 1.65, 7.54, repro,
2009-03-03,-1.02, 0.61, 10.13, 2.12, 1.71, 7.73, repro,
2009-03-04,0.35, 0.78, -0.11, 2.08, 1.64, 7.58, repro,
2009-03-05,1.14, -0.04, -2.79, 2.21, 1.79, 8.11, repro,
2009-03-06,2.17, 0.15, -0.27, 2.11, 1.70, 7.71, repro,
2009-03-07,2.63, -0.00, -6.88, 2.08, 1.64, 7.38, repro,
2009-03-08,1.63, -0.06, -2.08, 2.03, 1.61, 7.36, repro,
2009-03-09,2.22, 0.39, -1.79, 2.13, 1.69, 7.66, repro,
2009-03-10,2.19, -0.68, -3.05, 2.17, 1.78, 7.94, repro,
2009-03-11,1.54, -1.21, 0.01, 2.12, 1.69, 7.54, repro,
2009-03-12,0.75, -1.11, -5.49, 2.03, 1.59, 7.33, repro,
2009-03-13,0.56, -1.21, 1.00, 2.07, 1.64, 7.55, repro,
2009-03-14,2.21, -0.45, 1.59, 2.00, 1.56, 7.08, repro,
2009-03-15,2.41, 3.92, 0.29, 2.04, 1.60, 7.29, repro,
2009-03-16,3.13, 1.62, -1.30, 2.00, 1.56, 7.13, repro,
2009-03-17,1.78, -0.11, -0.20, 2.01, 1.56, 7.14, repro,
2009-03-18,1.97, -0.94, -1.74, 2.00, 1.55, 7.06, repro,
2009-03-19,1.38, -1.65, 1.94, 2.01, 1.57, 7.15, repro,
2009-03-20,1.48, -0.95, 1.14, 2.00, 1.55, 7.06, repro,
2009-03-21,2.49, -0.07, 0.40, 2.01, 1.56, 7.15, repro,
2009-03-22,2.16, -0.93, 8.12, 2.10, 1.64, 7.41, repro,
2009-03-23,0.33, -1.77, 4.42, 2.12, 1.64, 7.46, repro,
2009-03-24,0.96, -2.65, 3.58, 2.04, 1.59, 7.21, repro,
2009-03-25,1.66, -1.34, 4.80, 2.01, 1.56, 7.12, repro,
2009-03-26,-0.18, -1.23, -1.94, 2.01, 1.55, 7.09, repro,
2009-03-27,3.54, -2.47, -0.27, 2.06, 1.57, 7.25, repro,
2009-03-28,3.13, -1.61, -1.11, 2.06, 1.57, 7.23, repro,
2009-03-29,1.72, -1.26, 0.53, 2.06, 1.58, 7.26, repro,
2009-03-30,1.12, -3.00, 3.72, 2.07, 1.57, 7.27, repro,
2009-03-31,2.37, -2.76, -3.57, 2.04, 1.56, 7.15, repro,
2009-04-01,2.19, -2.99, 3.24, 2.07, 1.57, 7.22, repro,
2009-04-02,4.36, -2.32, 1.81, 2.14, 1.62, 7.50, repro,
2009-04-03,3.46, -3.05, 0.69, 2.14, 1.68, 7.70, repro,
2009-04-04,1.75, -2.51, -0.49, 2.08, 1.59, 7.31, repro,
2009-04-05,1.65, -2.04, -1.79, 2.06, 1.56, 7.20, repro,
2009-04-06,1.93, -1.19, -2.59, 2.06, 1.55, 7.13, repro,
2009-04-07,2.00, -2.29, -0.50, 2.07, 1.57, 7.22, repro,
2009-04-08,1.79, -0.89, 1.54, 2.06, 1.56, 7.20, repro,
2009-04-09,1.08, -0.84, 3.48, 2.11, 1.61, 7.34, repro,
2009-04-10,1.31, -0.56, -1.15, 2.07, 1.57, 7.23, repro,
2009-04-11,1.49, -1.95, -0.09, 2.12, 1.60, 7.34, repro,
2009-04-12,2.50, -2.54, -5.61, 2.11, 1.59, 7.29, repro,
2009-04-13,1.75, -1.70, -2.86, 2.13, 1.61, 7.38, repro,
2009-04-14,0.57, -2.59, 3.55, 2.10, 1.58, 7.30, repro,
2009-04-15,1.02, -0.58, 2.59, 2.19, 1.64, 7.55, repro,
2009-04-16,1.78, -1.06, -0.80, 2.13, 1.60, 7.34, repro,
2009-04-17,1.49, -0.68, -7.10, 2.12, 1.59, 7.32, repro,
2009-04-18,1.25, -1.66, -0.88, 2.12, 1.60, 7.33, repro,
2009-04-19,2.08, -0.45, 2.30, 2.09, 1.57, 7.20, repro,
2009-04-20,0.31, -1.96, -2.21, 2.09, 1.57, 7.25, repro,
2009-04-21,-0.50, -2.33, -3.16, 2.12, 1.59, 7.31, repro,
2009-04-22,2.39, -0.43, 5.80, 2.18, 1.64, 7.52, repro,
2009-04-23,1.50, -0.46, 6.27, 2.16, 1.62, 7.38, repro,
2009-04-24,2.42, -0.70, -2.45, 2.14, 1.61, 7.33, repro,
2009-04-25,0.90, -2.82, -4.36, 2.10, 1.57, 7.27, repro,
2009-04-26,0.28, -1.63, -2.59, 2.10, 1.57, 7.26, repro,
2009-04-27,0.34, -0.64, 0.48, 2.19, 1.64, 7.46, repro,
2009-04-28,0.28, -1.27, 1.75, 2.12, 1.58, 7.24, repro,
2009-04-29,0.62, -1.12, 3.82, 2.29, 1.75, 7.87, repro,
2009-04-30,1.01, -0.64, -2.96, 2.15, 1.63, 7.42, repro,
2009-05-01,2.27, 0.52, -4.22, 2.15, 1.61, 7.34, repro,
2009-05-02,3.46, 3.42, 0.07, 2.10, 1.56, 7.20, repro,
2009-05-03,2.15, 0.29, 2.01, 2.17, 1.59, 7.41, repro,
2009-05-04,1.99, 0.89, -2.33, 2.11, 1.57, 7.18, repro,
2009-05-05,2.94, 0.87, 6.68, 2.14, 1.62, 7.37, repro,
2009-05-06,1.55, 0.04, 5.56, 2.10, 1.56, 7.24, repro,
2009-05-07,1.01, -1.62, 0.77, 2.09, 1.56, 7.25, repro,
2009-05-08,1.49, -0.04, 0.16, 2.08, 1.56, 7.23, repro,
2009-05-09,1.43, -1.95, -2.35, 2.08, 1.56, 7.23, repro,
2009-05-10,1.24, -0.31, 3.37, 2.07, 1.55, 7.21, repro,
2009-05-11,1.84, 0.47, 0.08, 2.09, 1.56, 7.26, repro,
2009-05-12,0.08, -2.76, 8.57, 2.16, 1.63, 7.52, repro,
2009-05-13,0.69, -0.88, -0.44, 2.11, 1.59, 7.32, repro,
2009-05-14,0.57, -1.98, 8.11, 2.08, 1.56, 7.24, repro,
2009-05-15,1.65, -1.60, 2.61, 2.08, 1.56, 7.21, repro,
2009-05-16,-0.55, -2.39, 1.26, 2.08, 1.55, 7.24, repro,
2009-05-17,1.89, -1.50, -4.67, 2.06, 1.55, 7.21, repro,
2009-05-18,2.13, -0.70, -0.97, 2.07, 1.55, 7.21, repro,
2009-05-19,2.69, -1.33, 0.83, 2.09, 1.58, 7.41, repro,
2009-05-20,1.66, -0.40, 4.70, 2.09, 1.57, 7.35, repro,
2009-05-21,1.44, -1.62, -0.20, 2.06, 1.56, 7.24, repro,
2009-05-22,1.05, -1.34, -2.33, 2.07, 1.56, 7.30, repro,
2009-05-23,1.17, -1.95, -2.45, 2.06, 1.55, 7.22, repro,
2009-05-24,1.74, -1.19, 2.18, 2.07, 1.56, 7.29, repro,
2009-05-25,-0.51, -2.49, 8.62, 2.08, 1.56, 7.28, repro,
2009-05-26,0.98, -0.11, 7.46, 2.08, 1.57, 7.34, repro,
2009-05-27,0.36, -1.70, 5.53, 2.07, 1.55, 7.25, repro,
2009-05-28,-0.70, -1.46, 6.31, 2.07, 1.56, 7.30, repro,
2009-05-29,-0.50, -1.92, -0.44, 2.17, 1.67, 7.65, repro,
2009-05-30,0.40, -2.34, 3.51, 2.08, 1.57, 7.37, repro,
2009-05-31,0.94, -2.04, 3.46, 2.11, 1.60, 7.50, repro,
2009-06-01,-0.67, -1.98, 4.16, 2.11, 1.62, 7.65, repro,
2009-06-02,-0.64, -1.43, -0.97, 2.09, 1.59, 7.40, repro,
2009-06-03,-0.13, -0.34, 2.28, 2.21, 1.70, 7.83, repro,
2009-06-04,0.10, -0.07, -1.64, 2.12, 1.64, 7.61, repro,
2009-06-05,0.69, -2.13, 2.30, 2.07, 1.56, 7.32, repro,
2009-06-06,2.23, -1.00, 5.99, 2.11, 1.60, 7.44, repro,
2009-06-07,1.37, -0.14, 0.31, 2.07, 1.55, 7.26, repro,
2009-06-08,1.44, -1.45, 4.70, 2.07, 1.57, 7.37, repro,
2009-06-09,1.35, -0.79, 3.58, 2.07, 1.56, 7.35, repro,
2009-06-10,-0.57, -1.90, 2.77, 2.06, 1.56, 7.34, repro,
2009-06-11,2.12, -0.89, -3.29, 2.10, 1.63, 7.54, repro,
2009-06-12,0.81, -1.05, 2.55, 2.07, 1.56, 7.31, repro,
2009-06-13,1.39, -0.53, -0.20, 2.17, 1.66, 7.78, repro,
2009-06-14,-0.14, -0.11, 2.81, 2.11, 1.62, 7.55, repro,
2009-06-15,1.55, -0.87, 2.78, 2.11, 1.62, 7.54, repro,
2009-06-16,1.58, -2.31, 4.88, 2.06, 1.55, 7.26, repro,
2009-06-17,1.58, -0.59, 3.48, 2.08, 1.57, 7.36, repro,
2009-06-18,-0.79, -2.01, 3.75, 2.08, 1.56, 7.33, repro,
2009-06-19,0.15, -0.25, 0.45, 2.13, 1.64, 7.68, repro,
2009-06-20,-0.34, -1.09, 8.22, 2.07, 1.57, 7.35, repro,
2009-06-21,0.67, -2.40, 8.26, 2.06, 1.57, 7.34, repro,
2009-06-22,1.04, -0.78, 8.89, 2.07, 1.56, 7.28, repro,
2009-06-23,0.50, -0.28, 10.08, 2.08, 1.57, 7.36, repro,
2009-06-24,0.26, -0.26, 5.83, 2.13, 1.62, 7.56, repro,
2009-06-25,-0.00, -0.63, 5.40, 2.14, 1.66, 7.69, repro,
2009-06-26,1.61, -0.76, 3.30, 2.08, 1.60, 7.44, repro,
2009-06-27,-0.40, -2.16, 2.19, 2.11, 1.65, 7.59, repro,
2009-06-28,1.36, 0.25, 1.65, 2.09, 1.59, 7.44, repro,
2009-06-29,0.44, 0.39, 9.61, 2.10, 1.60, 7.52, repro,
2009-06-30,0.03, -1.00, 6.93, 2.09, 1.59, 7.45, repro,
2009-07-01,0.36, -1.98, 6.93, 2.16, 1.70, 7.88, repro,
2009-07-02,0.10, -2.12, 8.57, 2.08, 1.61, 7.52, repro,
2009-07-03,-1.24, -1.94, 5.22, 2.15, 1.71, 7.83, repro,
2009-07-04,0.52, -0.46, 5.31, 2.06, 1.56, 7.30, repro,
2009-07-05,0.76, 0.39, 9.21, 2.06, 1.56, 7.33, repro,
2009-07-06,-0.28, -0.71, 11.07, 2.06, 1.56, 7.36, repro,
2009-07-07,0.13, -1.81, 15.59, 2.05, 1.57, 7.35, repro,
2009-07-08,-0.49, -1.19, 8.87, 2.05, 1.57, 7.34, repro,
2009-07-09,0.38, -1.58, 6.81, 2.06, 1.57, 7.36, repro,
2009-07-10,0.62, -2.07, 8.81, 2.04, 1.57, 7.28, repro,
2009-07-11,2.32, -0.38, 5.96, 2.04, 1.56, 7.28, repro,
2009-07-12,0.57, 0.46, 7.54, 2.05, 1.56, 7.32, repro,
2009-07-13,-0.19, -1.63, 9.30, 2.06, 1.57, 7.38, repro,
2009-07-14,-0.50, -1.61, 11.79, 2.05, 1.57, 7.34, repro,
2009-07-15,-0.24, -0.99, 9.07, 2.04, 1.56, 7.27, repro,
2009-07-16,0.62, -0.13, 7.92, 2.04, 1.57, 7.27, repro,
2009-07-17,-0.40, -0.92, 14.27, 2.08, 1.62, 7.52, repro,
2009-07-18,-1.46, -1.49, 9.27, 2.05, 1.57, 7.30, repro,
2009-07-19,0.07, -0.77, 9.66, 2.06, 1.58, 7.40, repro,
2009-07-20,0.41, -1.19, 5.69, 2.05, 1.58, 7.34, repro,
2009-07-21,0.06, 0.44, 8.16, 2.03, 1.57, 7.27, repro,
2009-07-22,-0.72, -1.31, 11.18, 2.04, 1.58, 7.32, repro,
2009-07-23,-1.00, -1.65, 8.82, 2.04, 1.57, 7.29, repro,
2009-07-24,-0.32, -1.23, 12.00, 2.07, 1.63, 7.49, repro,
2009-07-25,0.48, -1.18, 4.93, 2.11, 1.61, 7.54, repro,
2009-07-26,-0.02, -1.34, -1.55, 2.09, 1.60, 7.48, repro,
2009-07-27,0.65, -0.90, 4.10, 2.04, 1.57, 7.27, repro,
2009-07-28,-0.92, -2.16, 10.14, 2.05, 1.58, 7.35, repro,
2009-07-29,-0.31, -2.23, 11.33, 2.08, 1.62, 7.45, repro,
2009-07-30,-1.91, -0.85, 11.01, 2.13, 1.59, 7.54, repro,
2009-07-31,-2.59, -0.23, 7.18, 2.05, 1.59, 7.35, repro,
2009-08-01,-1.60, -2.14, 10.58, 2.09, 1.63, 7.51, repro,
2009-08-02,-0.18, -2.15, 7.31, 2.04, 1.58, 7.35, repro,
2009-08-03,-1.99, -0.66, 2.31, 2.04, 1.58, 7.32, repro,
2009-08-04,-0.38, -0.88, 6.13, 2.07, 1.59, 7.40, repro,
2009-08-05,0.37, -1.02, 5.68, 2.11, 1.60, 7.48, repro,
2009-08-06,-1.01, -1.47, 13.47, 2.06, 1.59, 7.38, repro,
2009-08-07,-0.12, -3.75, 13.22, 2.61, 2.10, 9.67, repro,
2009-08-08,-0.99, -0.57, 3.82, 2.11, 1.60, 7.40, repro,